Regional Weather Roundup
Issued by NWS Spokane, WA

Home | Current Version | Previous Version | Text Only | Print | Product List | Glossary On
Versions: 1 2 3 4 5 6 7 8 9 10 11 12 13 14 15 16 17 18 19 20 21 22 23 24 25 26 27 28 29 30 31 32 33 34 35 36 37 38 39 40 41 42 43 44 45 46 47 48 49 50
000
NZUS01 KOTX 261610
RWROTX
EASTERN WASHINGTON/NORTHERN IDAHO ROUNDUP
NATIONAL WEATHER SERVICE, SPOKANE WA
900 AM PDT TUE JUL 26 2016

Note: "fair" indicated few or no clouds below 12,000 feet with no
significant weather and/or obstructions to visibility.

...NORTHEAST WASHINGTON AND NORTHERN IDAHO PANHANDLE...

CITY           SKY/WX    TMP DP  RH WIND       PRES   REMARKS
SPOKANE INTL   PTSUNNY   73  50  44 SE6       30.06R
SPOKANE DOWNTO SUNNY     77  52  41 E6        30.05R
COEUR D ALENE  SUNNY     73  54  49 SE5       30.04S
DEER PARK      SUNNY     71  54  54 CALM      30.06R
SANDPOINT      PTSUNNY   70  55  60 N14G23    30.07R
BONNERS FERRY  LGT RAIN  61  59  94 CALM      30.15R

...SOUTHEAST WASHINGTON AND SOUTHERN IDAHO PANHANDLE...

CITY           SKY/WX    TMP DP  RH WIND       PRES   REMARKS
WALLA WALLA    SUNNY     80  54  40 SW13      30.01F
PULLMAN/MOSCOW MOSUNNY   74  57  55 W8        30.08R
LEWISTON       SUNNY     76  53  44 E5        30.01S
LOWELL           N/A     68  53  58 CALM      30.06

...COLUMBIA BASIN...

CITY           SKY/WX    TMP DP  RH WIND       PRES   REMARKS
EPHRATA        SUNNY     83  55  38 N13       29.98R
MOSES LAKE     SUNNY     80  52  37 SE5       29.99R
TRI CITIES     SUNNY     81  58  45 VRB5      29.97S
HERMISTON      SUNNY     81  56  42 W9        29.99S
PENDLETON      SUNNY     79  52  38 W14       30.03S

...EAST SLOPES CASCADES...

CITY           SKY/WX    TMP DP  RH WIND       PRES   REMARKS
THE DALLES     SUNNY     73  55  53 NW24G32   30.01S
YAKIMA         SUNNY     82  52  35 N12       30.01R
ELLENSBURG     SUNNY     77  55  46 NW22G30   30.02S
STAMPEDE PASS  CLOUDY    53  52  96 VRB7      30.20R
WENATCHEE      SUNNY     78  54  43 NW18      30.01R
OMAK           MOSUNNY   76  56  49 NW13      30.01R

...SOUTHERN BRITISH COLUMBIA...

CITY           SKY/WX    TMP DP  RH WIND       PRES   REMARKS
PENTICTON      PTSUNNY   75  57  53 N7        30.04S
CASTLEGAR      MOSUNNY   72  59  64 N9        30.06S
CRANBROOK      PTSUNNY   66  54  63 SE5       30.14R

...WESTERN MONTANA...

CITY           SKY/WX    TMP DP  RH WIND       PRES   REMARKS
MISSOULA       SUNNY     69  46  43 CALM      30.10F

...NEIGHBORING CITIES...

CITY           SKY/WX    TMP DP  RH WIND       PRES   REMARKS
SEATTLE        CLOUDY    60  57  89 SW7       30.18S
CALGARY        PTSUNNY   66  57  72 NE8       30.11S



USA.gov is the U.S. government's official web portal to all federal, state and local government web resources and services.